Regional Weather Roundup
Issued by NWS Cleveland, OH

Home | Current Version | Previous Version | Graphics & Text | Print | Product List | Glossary On
Versions: 1 2 3 4 5 6 7 8 9 10 11 12 13 14 15 16 17 18 19 20 21 22 23 24 25 26 27 28 29 30 31 32 33 34 35 36 37 38 39 40 41 42 43 44 45 46 47 48 49 50
000
ASUS41 KCLE 142210
RWRCLE
OHIO REGIONAL WEATHER ROUNDUP
NATIONAL WEATHER SERVICE WILMINGTON, OH
500 PM EST SUN FEB 14 2016

NOTE: "FAIR" INDICATES FEW OR NO CLOUDS BELOW 12,000 FEET WITH NO
SIGNIFICANT WEATHER AND/OR OBSTRUCTIONS TO VISIBILITY.

OHZ001>008-015>018-024>027-034-035-043-044-142300-
   NORTHWEST OHIO

CITY           SKY/WX    TMP DP  RH WIND       PRES   REMARKS
DEFIANCE       CLOUDY    21   5  50 SE9       30.25F WCI  11
FINDLAY        CLOUDY    20   5  52 SE13      30.25F WCI   7
TOLEDO EXPRESS FAIR      18   5  57 E12G17    30.27F WCI   5
TOLEDO EXEC    FAIR      19   4  51 SE13      30.31S WCI   6
LIMA           LGT SNOW  17   7  64 SE15      30.21F WCI   2
$$

OHZ009>014-019>023-028>033-038-089-142300-
   NORTHEAST OHIO

CITY           SKY/WX    TMP DP  RH WIND       PRES   REMARKS
CLE-HOPKINS    CLOUDY    17   0  47 E12       30.35S WCI   4
CLE-LAKEFRONT  FAIR      19   2  47 SE10      30.35S WCI   7
CUY CO. ARPT   CLOUDY    30   1  29 S12       30.33F WCI  21
LORAIN-ELYRIA  FAIR      16   2  54 S7        30.32F WCI   6
ASHTABULA      FAIR      14  -1  51 E6        30.36F WCI   5
AKRON-CANTON   CLOUDY    17   0  47 SE9       30.29S WCI   6
WOOSTER        FAIR      17   3  54 SE8       30.28F WCI   7
MANSFIELD      FAIR      16   4  59 E13       30.25S WCI   2
YOUNGSTOWN     MOCLDY    15   1  53 E9        30.32F WCI   3
$$

OHZ042-051>053-060>062-070>072-077>081-142300-
  SOUTHWEST OHIO

CITY           SKY/WX    TMP DP  RH WIND       PRES   REMARKS
CINC-COVINGTON HVY SNOW  18  14  84 SE10      30.19R VSB 1/4 WCI   6
CINC-LUNKEN    HVY SNOW  19  16  88 E6        30.24R VSB 1/4 WCI  11
HAMILTON       SNOW      19  16  88 E9        30.22S VSB 1/4 WCI   8
DAYTON         SNOW      15  12  88 E15       30.20F VSB 1/2 WCI   0
WRIGHT-PAT AFB LGT SNOW  16  12  85 E10       30.21S VSB 3/4 WCI   4
DAYTON GENERAL HVY SNOW  17  12  80 E9        30.19F VSB 1/4 WCI   6
WILMINGTON     LGT SNOW  16  13  88 SE10      30.19S VSB 3/4 WCI   4
$$

OHZ036-037-039>041-045>050-054>059-063>069-073>076-082>088-142300-
  CENTRAL AND SOUTHEAST OHIO

CITY           SKY/WX    TMP DP  RH WIND       PRES   REMARKS
COLUMBUS       CLOUDY    19   3  49 E13       30.25F WCI   6
OSU AIRPORT    FLURRIES  18   5  57 E12       30.23F WCI   5
BOLTON FIELD   LGT SNOW  18  10  73 E9        30.24F VSB 1   WCI   6
RICKENBACK AFB LGT SNOW  18  10  70 SE13      30.24F WCI   5
NEWARK         CLOUDY    20   4  50 E10       30.28F WCI   9
MARION         CLOUDY    18   2  49 SE13      30.26F WCI   5
LANCASTER      LGT SNOW  18  11  74 E14       30.26F VSB 3/4 WCI   4
ZANESVILLE     CLOUDY    21   3  45 SE8       30.31R WCI  11
NEW PHILLY     FAIR      18   2  49 SE10      30.33R WCI   6
$$



USA.gov is the U.S. government's official web portal to all federal, state and local government web resources and services.